Dewpoint
57 56 55 53 51 50 46 44 35 45 47 36 34 29 30 34 32 33 32 30 28 26 26 25 23 23 24 32 30 28 29 25 22 22 26 28 25 24 22 20 15 18 16 14
56 55 53 52 50 49 44 40 38 46 44 30 29 30 31 32 30 30 31 31 32 32 28 24 24 26 31 32 32 28 29 25 18 18 21 24 23 23 21 21 22 19 14 13
55 53 52 50 50 49 45 36 32 39 42 36 30 30 30 29 32 31 33 31 32 29 28 29 27 29 32 33 32 36 33 26 22 16 18 24 22 23 23 21 19 17 19 18
53 52 51 51 49 49 44 39 34 36 32 34 34 32 29 29 30 33 32 30 29 27 25 26 28 30 31 33 33 32 30 24 24 25 26 27 25 25 25 23 21 19 20 20
51 51 50 49 48 48 41 36 34 35 34 35 34 32 30 28 31 31 31 28 31 30 26 28 28 29 31 30 30 30 32 27 27 24 25 24 23 24 25 25 24 22 22 21
51 49 48 47 47 45 39 41 40 37 34 33 32 31 30 30 31 32 32 31 30 28 30 32 33 32 30 30 30 29 28 26 24 19 22 21 15 20 21 22 25 23 22 22
48 47 47 46 46 44 42 41 39 33 28 32 31 30 32 30 30 29 32 31 28 30 24 23 24 25 25 25 24 29 28 25 24 20 19 10 14 21 23 24 25 23 23 25
46 46 46 46 46 45 41 40 36 33 28 30 27 29 29 29 29 29 32 31 28 21 20 19 19 19 20 21 22 22 28 27 23 16 16 16 16 17 17 17 16 16 18 20
43 42 41 41 42 43 38 37 35 31 28 26 25 28 26 26 27 26 22 21 20 21 19 19 15 13 14 13 19 23 26 27 25 20 15 11 15 18 19 18 14 16 15 17
40 40 43 43 43 43 37 36 36 28 27 20 20 23 24 23 21 21 20 19 17 21 19 17 17 16 17 12 13 18 20 23 20 20 17 19 18 13 18 12 13 16 13 17
41 41 41 42 42 40 35 35 37 28 23 23 23 20 20 20 21 19 18 18 18 19 17 17 15 15 13 12 12 15 16 16 17 19 18 14 10 14 13 10 10 10 12 18
41 40 39 39 38 37 35 31 37 36 30 28 30 29 28 25 21 21 20 18 19 20 17 16 16 13 11 9 8 9 8 16 14 17 16 10 9 7 8 9 7 11 8 10
40 39 39 40 39 38 36 35 36 32 28 26 24 23 26 27 24 23 19 20 20 20 19 18 17 12 14 8 8 7 9 9 6 2 4 6 4 5 3 7 6 7 8 10
39 39 39 39 39 38 37 34 34 31 28 21 20 23 21 24 26 25 21 22 23 22 21 17 15 14 16 10 8 8 6 10 6 7 5 2 0 1 4 7 9 9 11 11
39 40 39 39 39 38 35 34 34 33 25 23 20 22 24 22 24 26 26 25 23 20 15 10 13 17 15 14 13 10 10 7 4 0 3 3 5 8 11 12 13 13 13 12
39 39 39 37 38 35 31 26 32 34 30 21 18 23 21 20 22 21 21 24 24 22 17 15 18 20 14 8 8 11 11 11 11 9 10 11 11 12 15 18 18 18 17 16
38 38 39 38 38 36 31 27 31 35 30 19 13 19 20 21 24 23 22 23 23 22 20 18 19 19 20 10 11 9 9 12 13 13 13 15 19 19 19 20 22 24 23 24
38 38 38 36 35 34 32 34 35 30 24 19 7 12 16 19 15 14 24 20 18 17 19 22 19 18 17 9 14 15 16 19 19 18 18 18 19 20 20 21 22 22 22 23
37 37 33 32 31 28 30 36 32 31 24 13 13 7 6 19 18 19 17 17 8 21 15 20 19 16 11 14 15 18 18 16 16 18 19 19 19 20 20 21 20 21 21 23
36 32 27 24 31 35 31 23 19 19 15 14 14 18 12 16 17 15 15 15 16 7 15 22 18 16 18 24 22 21 19 20 20 19 18 19 20 20 20 21 21 21 21 21
29 24 25 30 30 24 16 6 7 5 4 19 18 17 14 19 12 13 18 6 10 5 11 17 15 16 15 16 17 20 20 20 21 21 21 22 23 23 23 23 22 22 23 23
28 26 26 22 13 5 3 -3 6 8 8 17 12 11 16 16 22 16 16 11 12 1 13 10 7 17 20 18 16 18 19 20 20 20 22 23 24 23 24 25 25 26 26 27
23 14 4 6 1 -3 -11 -9 -4 1 8 9 8 7 10 12 11 11 16 7 6 15 11 8 7 17 16 13 16 17 18 19 19 20 22 24 24 25 26 26 26 28 29 29
10 -2 -4 -7 -8 -6 1 2 5 12 15 14 12 10 10 8 8 8 9 10 12 2 -5 3 13 13 15 17 17 17 17 18 19 21 22 22 23 25 26 27 28 30 28 28
8 -0 -9 -2 6 -0 -1 -1 9 16 16 15 10 10 13 8 3 5 7 1 -3 1 2 14 15 16 16 16 15 16 17 18 19 21 21 22 24 25 25 27 29 29 27 26
5 1 1 13 5 1 3 2 7 16 16 18 13 1 -1 1 4 2 -2 -3 -5 8 15 16 16 16 15 15 16 16 18 18 20 21 22 23 25 24 25 27 29 27 26 26
2 3 15 11 12 5 6 6 6 13 13 6 7 0 0 -3 -1 -1 5 1 8 11 15 16 15 15 15 16 17 16 17 18 20 22 22 23 25 26 27 25 28 29 30 30
Lifted_Index
3 3 4 6 10 11 10 7 6 9 9 6 5 4 5 7 9 10 11 11 10 10 9 9 9 9 8 8 8 8 8 7 6 6 6 5 5 4 4 3 3 3 3 2
4 4 5 7 10 12 10 7 7 9 10 7 5 5 5 7 9 10 11 10 10 10 9 9 9 9 8 8 7 7 7 6 5 5 5 5 5 4 4 4 3 3 3 2
4 4 5 8 11 12 11 8 7 9 9 7 6 6 6 7 9 11 11 10 10 10 9 9 9 9 8 8 7 7 6 6 5 5 5 5 5 4 4 4 3 3 3 3
4 4 5 9 11 12 11 9 8 8 8 7 7 7 7 7 9 11 11 11 10 10 9 9 9 8 8 7 7 6 6 6 5 5 5 6 5 5 4 4 3 3 3 2
5 5 7 9 11 12 11 9 9 9 8 8 8 8 9 9 10 11 11 11 10 10 9 9 9 8 8 7 7 6 6 6 6 5 6 6 5 5 4 4 3 3 3 3
7 7 9 10 11 12 11 11 10 9 8 8 9 9 10 11 11 11 11 11 10 10 10 9 9 9 8 7 7 6 6 6 6 5 5 5 5 5 5 5 4 4 3 3
9 10 10 11 12 12 12 12 11 9 8 8 9 11 11 11 11 11 11 11 11 10 10 10 9 9 8 8 7 7 6 6 6 5 5 4 5 6 6 5 5 4 4 4
11 11 11 12 12 12 12 12 11 10 9 10 11 11 12 11 11 11 11 11 11 11 11 10 9 8 7 7 7 7 7 7 6 5 4 4 5 6 6 5 5 5 4 4
12 12 12 12 12 12 12 11 11 11 11 11 12 12 11 11 11 11 11 11 11 11 11 9 7 6 6 6 6 7 7 7 6 5 4 4 6 6 6 5 5 5 5 5
12 12 12 12 12 12 11 11 12 12 12 13 12 12 12 11 11 12 11 11 11 11 10 8 6 6 6 6 6 6 6 6 5 5 4 4 6 6 6 6 6 6 6 6
12 12 12 12 12 12 12 12 12 13 13 14 13 12 12 12 12 12 12 12 11 11 10 8 7 7 7 6 6 6 6 6 5 5 5 5 6 7 7 7 7 8 7 7
11 12 12 12 12 12 13 13 13 13 14 14 14 13 13 13 12 12 12 12 12 11 10 10 9 8 8 7 7 7 7 7 6 6 6 6 7 8 8 9 9 9 9 9
10 11 11 11 12 12 13 14 14 14 14 14 14 14 14 14 13 13 13 12 12 12 11 11 11 10 9 8 8 9 9 8 8 8 7 7 8 9 10 10 10 10 10 10
10 10 10 11 11 12 13 14 14 14 14 13 13 14 14 14 14 13 13 13 13 12 12 12 11 11 10 10 10 10 10 10 9 9 9 10 10 11 11 11 11 11 11 11
10 10 11 11 12 13 14 14 14 14 13 12 13 13 14 14 14 13 13 13 13 12 12 12 12 11 11 11 11 11 11 11 11 11 11 11 11 11 11 11 11 11 11 12
10 10 11 12 12 13 14 14 14 14 13 13 12 13 13 14 13 13 13 13 13 12 12 12 12 12 12 11 11 11 11 11 11 11 11 10 9 9 9 9 9 9 10 10
10 11 11 12 12 13 13 13 14 14 14 13 12 13 13 13 13 13 13 13 12 12 12 12 12 12 12 11 10 10 11 10 10 9 9 8 7 7 7 7 7 7 8 9
10 11 12 12 13 13 13 13 13 14 13 13 12 12 12 13 13 13 12 12 12 12 12 12 12 11 11 10 9 9 9 8 8 7 7 7 6 6 6 6 6 6 6 7
11 11 12 12 13 13 13 13 13 13 13 13 12 12 12 12 12 12 12 12 12 11 11 11 10 10 9 8 8 8 7 7 7 7 7 6 6 7 7 7 7 7 7 7
11 12 12 13 13 13 13 13 13 13 13 12 12 12 11 12 12 11 11 11 11 10 10 9 9 8 7 7 7 7 8 8 8 8 7 7 7 8 8 8 8 8 8 7
12 12 12 13 13 13 13 12 12 12 12 12 11 11 11 11 11 11 10 10 9 8 8 7 7 6 7 7 7 8 8 8 9 8 8 8 9 9 9 9 9 8 8 7
12 12 12 13 13 12 11 11 11 11 11 11 11 10 10 10 10 10 9 9 8 7 7 6 5 6 7 7 7 8 9 9 9 9 9 10 10 10 9 8 8 7 7 7
12 12 12 11 11 11 10 9 10 10 10 10 10 10 9 9 9 8 8 8 7 6 5 5 5 6 7 7 7 8 9 9 9 9 10 10 9 9 8 7 7 6 6 6
11 11 10 10 10 10 9 9 9 9 9 9 9 9 8 8 8 7 7 7 6 5 4 4 5 6 7 8 8 9 9 10 10 10 10 9 9 8 7 6 6 5 6 6
10 10 9 9 9 9 9 9 9 9 8 8 8 7 7 7 7 7 7 6 5 4 4 5 6 7 8 8 9 10 10 10 10 10 10 9 8 7 6 5 5 5 6 7
9 9 9 9 9 8 8 8 8 7 7 7 6 6 7 7 7 7 6 6 5 5 5 6 7 8 9 9 10 10 10 10 10 10 10 9 8 7 5 4 5 5 7 7
9 9 9 8 8 8 7 7 7 6 6 6 6 6 6 7 7 7 6 6 6 6 6 7 8 9 9 10 10 10 10 10 10 10 10 10 9 7 5 4 4 5 7 8